Location: Newark
(34.0111°N, 88.4892°W)
Time: 07:27:09
(UTC+00:00)

SO-50 - Visible Passes

Search period start: 05 June 2020 00:00
Search period end: 15 June 2020 00:00
Orbit: 608 x 678 km, 64.6° (Epoch: 04 June)

Date Brightness Start Highest point End Pass type
(mag) Time Alt. Az. Time Alt. Az. Time Alt. Az.
05 Jun ? 02:59:52 10° NNW 03:04:23 76° ENE 03:05:13 57° SE visible
06 Jun ? 01:45:25 10° N 01:48:43 20° NE 01:51:58 10° E visible
06 Jun ? 03:25:07 10° NW 03:29:16 37° WSW 03:29:44 36° SW visible
07 Jun ? 02:09:35 10° NNW 02:13:58 47° ENE 02:16:39 21° ESE visible
07 Jun ? 03:51:42 10° WNW 03:53:54 14° WSW 03:54:18 13° WSW visible
08 Jun ? 02:34:30 10° NW 02:38:56 61° WSW 02:41:16 26° S visible
09 Jun ? 03:00:17 10° WNW 03:03:42 22° WSW 03:05:57 15° SSW visible
10 Jun ? 01:44:03 10° NNW 01:48:34 84° ENE 01:53:00 10° SSE visible
11 Jun ? 02:09:22 10° NW 02:13:25 34° WSW 02:17:24 10° S visible
12 Jun ? 02:36:18 10° W 02:38:03 12° WSW 02:39:48 10° SW visible
14 Jun ? 01:44:38 10° WNW 01:47:50 19° WSW 01:51:00 10° SSW visible
